Location: Unspecified
(0.0000°N, 0.0000°E)
Time: 05:37:03
(UTC+00:00)

RS-8 - Pass Details

Date: 14 October 2022
Orbit: 1579 x 1660 km, 83.0° (Epoch: 09 December)

Event Time Altitude Azimuth Distance (km) Brightness Sun altitude
Rises 21:07:41 0° 215° (SW) 4,767 11.0 -49.7°
Reaches altitude 10° 21:11:47 10° 232° (SW) 3,783 10.5 -50.7°
Maximum altitude 21:17:37 19° 273° (W) 3,139 9.9 -52.1°
Drops below altitude 10° 21:23:30 10° 314° (NW) 3,799 10.2 -53.5°
Sets 21:27:43 0° 331° (NNW) 4,794 10.7 -54.6°
